Data supplied by UK-AIR on 14/3/2017
All Data GMT hour ending 
Status: R =Ratified P=Provisional,P*=As supplied
,,Billingham,,,,,,,,,,,,,,,,,,,,,,,
Date,time,"Nitric oxide",status,unit,"Nitrogen dioxide",status,unit,"Nitrogen oxides as nitrogen dioxide",status,unit
 
01-01-2016,01:00,1.09180,R,ugm-3,11.85495,R,ugm-3,13.52903,R,ugm-3
01-01-2016,02:00,0.87311,R,ugm-3,9.10031,R,ugm-3,10.43906,R,ugm-3
01-01-2016,03:00,0.73653,R,ugm-3,10.58330,R,ugm-3,11.71263,R,ugm-3
01-01-2016,04:00,0.69568,R,ugm-3,7.26368,R,ugm-3,8.33037,R,ugm-3
01-01-2016,05:00,1.30998,R,ugm-3,19.85079,R,ugm-3,21.85940,R,ugm-3
01-01-2016,06:00,0.98225,R,ugm-3,11.70976,R,ugm-3,13.21585,R,ugm-3
01-01-2016,07:00,0.81854,R,ugm-3,10.58282,R,ugm-3,11.83790,R,ugm-3
01-01-2016,08:00,0.98256,R,ugm-3,20.41546,R,ugm-3,21.92203,R,ugm-3
01-01-2016,09:00,1.63802,R,ugm-3,31.49888,R,ugm-3,34.01047,R,ugm-3
01-01-2016,10:00,2.74344,R,ugm-3,25.54478,R,ugm-3,29.75133,R,ugm-3
01-01-2016,11:00,7.57423,R,ugm-3,36.48954,R,ugm-3,48.10320,R,ugm-3
01-01-2016,12:00,10.84995,R,ugm-3,36.79076,R,ugm-3,53.42712,R,ugm-3
01-01-2016,13:00,2.98884,R,ugm-3,17.84028,R,ugm-3,22.42311,R,ugm-3
01-01-2016,14:00,1.22828,R,ugm-3,10.76881,R,ugm-3,12.65214,R,ugm-3
01-01-2016,15:00,0.94140,R,ugm-3,8.89121,R,ugm-3,10.33467,R,ugm-3
01-01-2016,16:00,2.66143,R,ugm-3,19.21919,R,ugm-3,23.29999,R,ugm-3
01-01-2016,17:00,3.02969,R,ugm-3,18.34135,R,ugm-3,22.98682,R,ugm-3
01-01-2016,18:00,2.04744,R,ugm-3,10.01385,R,ugm-3,13.15322,R,ugm-3
01-01-2016,19:00,1.39230,R,ugm-3,10.01624,R,ugm-3,12.15107,R,ugm-3
01-01-2016,20:00,1.96543,R,ugm-3,11.14175,R,ugm-3,14.15537,R,ugm-3
01-01-2016,21:00,2.37455,R,ugm-3,14.33514,R,ugm-3,17.97607,R,ugm-3
01-01-2016,22:00,4.01225,R,ugm-3,17.39849,R,ugm-3,23.55053,R,ugm-3
01-01-2016,23:00,2.16999,R,ugm-3,10.20175,R,ugm-3,13.52903,R,ugm-3
01-01-2016,24:00,1.47369,R,ugm-3,9.82882,R,ugm-3,12.08843,R,ugm-3
02-01-2016,01:00,1.53210,R,ugm-3,9.28583,R,ugm-3,11.63501,R,ugm-3
02-01-2016,02:00,1.42275,R,ugm-3,9.36998,R,ugm-3,11.55150,R,ugm-3
02-01-2016,03:00,1.88748,R,ugm-3,9.78674,R,ugm-3,12.68083,R,ugm-3
02-01-2016,04:00,1.23109,R,ugm-3,8.97297,R,ugm-3,10.86061,R,ugm-3
02-01-2016,05:00,1.35426,R,ugm-3,10.10230,R,ugm-3,12.17880,R,ugm-3
02-01-2016,06:00,3.03655,R,ugm-3,14.17688,R,ugm-3,18.83287,R,ugm-3
02-01-2016,07:00,13.99346,R,ugm-3,35.54573,R,ugm-3,57.00206,R,ugm-3
02-01-2016,08:00,4.39081,R,ugm-3,13.73318,R,ugm-3,20.46566,R,ugm-3
02-01-2016,09:00,4.84233,R,ugm-3,16.87016,R,ugm-3,24.29497,R,ugm-3
02-01-2016,10:00,3.52892,R,ugm-3,12.22948,R,ugm-3,17.64042,R,ugm-3
02-01-2016,11:00,3.61125,R,ugm-3,13.04516,R,ugm-3,18.58233,R,ugm-3
02-01-2016,12:00,6.97615,R,ugm-3,16.04683,R,ugm-3,26.74344,R,ugm-3
02-01-2016,13:00,1.96949,R,ugm-3,14.62058,R,ugm-3,17.64042,R,ugm-3
02-01-2016,14:00,0.94389,R,ugm-3,7.27898,R,ugm-3,8.72626,R,ugm-3
02-01-2016,15:00,0.94389,R,ugm-3,6.40018,R,ugm-3,7.84747,R,ugm-3
02-01-2016,16:00,0.94358,R,ugm-3,6.40018,R,ugm-3,7.84699,R,ugm-3
02-01-2016,17:00,0.61523,R,ugm-3,7.84603,R,ugm-3,8.78937,R,ugm-3
02-01-2016,18:00,0.77987,R,ugm-3,7.96987,R,ugm-3,9.16566,R,ugm-3
02-01-2016,19:00,0.69724,R,ugm-3,8.09705,R,ugm-3,9.16613,R,ugm-3
02-01-2016,20:00,0.41036,R,ugm-3,8.91321,R,ugm-3,9.54242,R,ugm-3
02-01-2016,21:00,0.69755,R,ugm-3,12.30216,R,ugm-3,13.37172,R,ugm-3
02-01-2016,22:00,0.65670,R,ugm-3,9.97895,R,ugm-3,10.98588,R,ugm-3
02-01-2016,23:00,0.61554,R,ugm-3,13.49508,R,ugm-3,14.43890,R,ugm-3
02-01-2016,24:00,0.57438,R,ugm-3,13.11879,R,ugm-3,13.99950,R,ugm-3
03-01-2016,01:00,0.54881,R,ugm-3,11.99456,R,ugm-3,12.83606,R,ugm-3
03-01-2016,02:00,0.60369,R,ugm-3,13.84013,R,ugm-3,14.76578,R,ugm-3
03-01-2016,03:00,0.69974,R,ugm-3,12.64402,R,ugm-3,13.71693,R,ugm-3
03-01-2016,04:00,0.98693,R,ugm-3,14.97201,R,ugm-3,16.48527,R,ugm-3
03-01-2016,05:00,0.82322,R,ugm-3,13.64999,R,ugm-3,14.91224,R,ugm-3
03-01-2016,06:00,1.19242,R,ugm-3,14.90842,R,ugm-3,16.73677,R,ugm-3
03-01-2016,07:00,1.11010,R,ugm-3,14.72051,R,ugm-3,16.42264,R,ugm-3
03-01-2016,08:00,1.60372,R,ugm-3,19.94116,R,ugm-3,22.40016,R,ugm-3
03-01-2016,09:00,0.90523,R,ugm-3,16.92180,R,ugm-3,18.30980,R,ugm-3
03-01-2016,10:00,1.68635,R,ugm-3,17.80107,R,ugm-3,20.38677,R,ugm-3
03-01-2016,11:00,1.97416,R,ugm-3,16.10134,R,ugm-3,19.12835,R,ugm-3
03-01-2016,12:00,2.22113,R,ugm-3,15.09297,R,ugm-3,18.49866,R,ugm-3
03-01-2016,13:00,1.72720,R,ugm-3,14.65549,R,ugm-3,17.30382,R,ugm-3
03-01-2016,14:00,1.72751,R,ugm-3,18.24095,R,ugm-3,20.88976,R,ugm-3
03-01-2016,15:00,2.34430,R,ugm-3,19.87518,R,ugm-3,23.46972,R,ugm-3
03-01-2016,16:00,1.27505,R,ugm-3,9.18191,R,ugm-3,11.13697,R,ugm-3
03-01-2016,17:00,0.41161,R,ugm-3,7.29714,R,ugm-3,7.92827,R,ugm-3
03-01-2016,18:00,1.39854,R,ugm-3,7.60840,R,ugm-3,9.75279,R,ugm-3
03-01-2016,19:00,0.74058,R,ugm-3,6.47812,R,ugm-3,7.61366,R,ugm-3
03-01-2016,20:00,0.61741,R,ugm-3,6.98110,R,ugm-3,7.92779,R,ugm-3
03-01-2016,21:00,2.22082,R,ugm-3,12.89168,R,ugm-3,16.29689,R,ugm-3
03-01-2016,22:00,3.00256,R,ugm-3,26.79365,R,ugm-3,31.39751,R,ugm-3
03-01-2016,23:00,4.11297,R,ugm-3,35.53616,R,ugm-3,41.84263,R,ugm-3
03-01-2016,24:00,0.94608,R,ugm-3,15.09728,R,ugm-3,16.54791,R,ugm-3
04-01-2016,01:00,0.71470,R,ugm-3,15.38543,R,ugm-3,16.48129,R,ugm-3
04-01-2016,02:00,0.71470,R,ugm-3,10.67621,R,ugm-3,11.77208,R,ugm-3
04-01-2016,03:00,0.74214,R,ugm-3,12.73629,R,ugm-3,13.87423,R,ugm-3
04-01-2016,04:00,0.70098,R,ugm-3,15.57397,R,ugm-3,16.64879,R,ugm-3
04-01-2016,05:00,1.81389,R,ugm-3,18.09321,R,ugm-3,20.87446,R,ugm-3
04-01-2016,06:00,0.94826,R,ugm-3,17.02412,R,ugm-3,18.47810,R,ugm-3
04-01-2016,07:00,24.07445,R,ugm-3,33.40373,R,ugm-3,70.31737,R,ugm-3
04-01-2016,08:00,28.81481,R,ugm-3,47.19907,R,ugm-3,91.38116,R,ugm-3
04-01-2016,09:00,51.48761,R,ugm-3,72.15623,R,ugm-3,151.10280,R,ugm-3
04-01-2016,10:00,5.02943,R,ugm-3,34.41544,R,ugm-3,42.12712,R,ugm-3
04-01-2016,11:00,4.74068,R,ugm-3,24.01144,R,ugm-3,31.28037,R,ugm-3
04-01-2016,12:00,7.79095,R,ugm-3,31.12689,R,ugm-3,43.07285,R,ugm-3
04-01-2016,13:00,5.19407,R,ugm-3,23.50463,R,ugm-3,31.46875,R,ugm-3
04-01-2016,14:00,3.33933,R,ugm-3,19.72744,R,ugm-3,24.84768,R,ugm-3
04-01-2016,15:00,8.28613,R,ugm-3,36.73817,R,ugm-3,49.44338,R,ugm-3
04-01-2016,16:00,7.29639,R,ugm-3,25.64232,R,ugm-3,36.82997,R,ugm-3
04-01-2016,17:00,7.87358,R,ugm-3,35.28897,R,ugm-3,47.36163,R,ugm-3
04-01-2016,18:00,1.36049,R,ugm-3,24.21177,R,ugm-3,26.29783,R,ugm-3
04-01-2016,19:00,0.82447,R,ugm-3,17.52902,R,ugm-3,18.79318,R,ugm-3
04-01-2016,20:00,0.90679,R,ugm-3,21.43913,R,ugm-3,22.82951,R,ugm-3
04-01-2016,21:00,1.81389,R,ugm-3,30.13813,R,ugm-3,32.91938,R,ugm-3
04-01-2016,22:00,0.70098,R,ugm-3,19.29521,R,ugm-3,20.37004,R,ugm-3
04-01-2016,23:00,0.70098,R,ugm-3,13.43005,R,ugm-3,14.50488,R,ugm-3
04-01-2016,24:00,1.15406,R,ugm-3,21.24883,R,ugm-3,23.01837,R,ugm-3
05-01-2016,01:00,0.77083,R,ugm-3,8.76244,R,ugm-3,9.94436,R,ugm-3
05-01-2016,02:00,1.70631,R,ugm-3,26.71253,R,ugm-3,29.32883,R,ugm-3
05-01-2016,03:00,2.22955,R,ugm-3,27.36357,R,ugm-3,30.78217,R,ugm-3
05-01-2016,04:00,3.09673,R,ugm-3,32.22849,R,ugm-3,36.97675,R,ugm-3
05-01-2016,05:00,5.36682,R,ugm-3,31.21296,R,ugm-3,39.44197,R,ugm-3
05-01-2016,06:00,2.31218,R,ugm-3,25.84648,R,ugm-3,29.39178,R,ugm-3
05-01-2016,07:00,24.97781,R,ugm-3,49.81345,R,ugm-3,88.11222,R,ugm-3
05-01-2016,08:00,20.51871,R,ugm-3,47.61217,R,ugm-3,79.07375,R,ugm-3
05-01-2016,09:00,23.78071,R,ugm-3,47.03459,R,ugm-3,83.49784,R,ugm-3
05-01-2016,10:00,8.71114,R,ugm-3,33.29089,R,ugm-3,46.64779,R,ugm-3
05-01-2016,11:00,5.86293,R,ugm-3,31.71594,R,ugm-3,40.70565,R,ugm-3
05-01-2016,12:00,5.07807,R,ugm-3,23.94450,R,ugm-3,31.73077,R,ugm-3
05-01-2016,13:00,4.66521,R,ugm-3,16.10708,R,ugm-3,23.26030,R,ugm-3
05-01-2016,14:00,5.73883,R,ugm-3,22.23568,R,ugm-3,31.03509,R,ugm-3
05-01-2016,15:00,11.02301,R,ugm-3,35.37121,R,ugm-3,52.27293,R,ugm-3
05-01-2016,16:00,6.89445,R,ugm-3,36.58182,R,ugm-3,47.15317,R,ugm-3
05-01-2016,17:00,4.70638,R,ugm-3,29.19144,R,ugm-3,36.40778,R,ugm-3
05-01-2016,18:00,6.81213,R,ugm-3,33.54764,R,ugm-3,43.99276,R,ugm-3
05-01-2016,19:00,6.48222,R,ugm-3,43.09245,R,ugm-3,53.03171,R,ugm-3
05-01-2016,20:00,2.64241,R,ugm-3,44.17588,R,ugm-3,48.22751,R,ugm-3
05-01-2016,21:00,2.18776,R,ugm-3,34.82328,R,ugm-3,38.17780,R,ugm-3
05-01-2016,22:00,0.94982,R,ugm-3,23.57395,R,ugm-3,25.03032,R,ugm-3
05-01-2016,23:00,3.46781,R,ugm-3,28.62534,R,ugm-3,33.94257,R,ugm-3
05-01-2016,24:00,2.35334,R,ugm-3,30.20746,R,ugm-3,33.81587,R,ugm-3
06-01-2016,01:00,1.15874,R,ugm-3,21.11464,R,ugm-3,22.89135,R,ugm-3
06-01-2016,02:00,1.65517,R,ugm-3,27.36405,R,ugm-3,29.90194,R,ugm-3
06-01-2016,03:00,2.15159,R,ugm-3,26.47665,R,ugm-3,29.77571,R,ugm-3
06-01-2016,04:00,3.39328,R,ugm-3,30.02003,R,ugm-3,35.22299,R,ugm-3
06-01-2016,05:00,1.73811,R,ugm-3,25.90625,R,ugm-3,28.57132,R,ugm-3
06-01-2016,06:00,2.40012,R,ugm-3,26.41210,R,ugm-3,30.09223,R,ugm-3
06-01-2016,07:00,28.96574,R,ugm-3,46.24282,R,ugm-3,90.65633,R,ugm-3
06-01-2016,08:00,33.93061,R,ugm-3,41.92439,R,ugm-3,93.95061,R,ugm-3
06-01-2016,09:00,14.60682,R,ugm-3,33.28945,R,ugm-3,55.68626,R,ugm-3
06-01-2016,10:00,8.97931,R,ugm-3,25.38318,R,ugm-3,39.15127,R,ugm-3
06-01-2016,11:00,20.27611,R,ugm-3,30.17160,R,ugm-3,61.26120,R,ugm-3
06-01-2016,12:00,9.93100,R,ugm-3,26.45753,R,ugm-3,41.68485,R,ugm-3
06-01-2016,13:00,4.84171,R,ugm-3,23.93542,R,ugm-3,31.35926,R,ugm-3
06-01-2016,14:00,9.02047,R,ugm-3,26.52398,R,ugm-3,40.35518,R,ugm-3
06-01-2016,15:00,10.38627,R,ugm-3,30.32078,R,ugm-3,46.24616,R,ugm-3
06-01-2016,16:00,10.92417,R,ugm-3,27.97557,R,ugm-3,44.72573,R,ugm-3
06-01-2016,17:00,10.46890,R,ugm-3,32.22132,R,ugm-3,48.27341,R,ugm-3
06-01-2016,18:00,9.55868,R,ugm-3,36.59569,R,ugm-3,51.25213,R,ugm-3
06-01-2016,19:00,2.19307,R,ugm-3,23.05519,R,ugm-3,26.41784,R,ugm-3
06-01-2016,20:00,1.61401,R,ugm-3,21.40805,R,ugm-3,23.88282,R,ugm-3
06-01-2016,21:00,1.19990,R,ugm-3,21.91677,R,ugm-3,23.75660,R,ugm-3
06-01-2016,22:00,1.65486,R,ugm-3,18.17879,R,ugm-3,20.71620,R,ugm-3
06-01-2016,23:00,0.95200,R,ugm-3,15.77191,R,ugm-3,17.23163,R,ugm-3
06-01-2016,24:00,1.57253,R,ugm-3,17.67102,R,ugm-3,20.08221,R,ugm-3
07-01-2016,01:00,1.65891,R,ugm-3,14.55731,R,ugm-3,17.10094,R,ugm-3
07-01-2016,02:00,1.49302,R,ugm-3,15.40455,R,ugm-3,17.69381,R,ugm-3
07-01-2016,03:00,3.81549,R,ugm-3,23.23066,R,ugm-3,29.08100,R,ugm-3
07-01-2016,04:00,2.44689,R,ugm-3,18.28111,R,ugm-3,22.03296,R,ugm-3
07-01-2016,05:00,2.36395,R,ugm-3,19.55101,R,ugm-3,23.17568,R,ugm-3
07-01-2016,06:00,3.48371,R,ugm-3,20.75541,R,ugm-3,26.09702,R,ugm-3
07-01-2016,07:00,8.95811,R,ugm-3,36.55218,R,ugm-3,50.28775,R,ugm-3
07-01-2016,08:00,20.15574,R,ugm-3,41.03460,R,ugm-3,71.93964,R,ugm-3
07-01-2016,09:00,24.05418,R,ugm-3,45.97841,R,ugm-3,82.86098,R,ugm-3
07-01-2016,10:00,6.42827,R,ugm-3,29.38317,R,ugm-3,39.23972,R,ugm-3
07-01-2016,11:00,14.39104,R,ugm-3,33.30188,R,ugm-3,55.36783,R,ugm-3
07-01-2016,12:00,4.35464,R,ugm-3,18.46662,R,ugm-3,25.14364,R,ugm-3
07-01-2016,13:00,7.05036,R,ugm-3,36.62055,R,ugm-3,47.43096,R,ugm-3
07-01-2016,14:00,7.05036,R,ugm-3,43.60452,R,ugm-3,54.41493,R,ugm-3
07-01-2016,15:00,5.80618,R,ugm-3,22.46375,R,ugm-3,31.36643,R,ugm-3
07-01-2016,16:00,8.46044,R,ugm-3,28.68081,R,ugm-3,41.65329,R,ugm-3
07-01-2016,17:00,5.93060,R,ugm-3,23.79676,R,ugm-3,32.89022,R,ugm-3
07-01-2016,18:00,3.73255,R,ugm-3,17.51611,R,ugm-3,23.23927,R,ugm-3
07-01-2016,19:00,3.19340,R,ugm-3,14.21561,R,ugm-3,19.11209,R,ugm-3
07-01-2016,20:00,2.19805,R,ugm-3,10.40783,R,ugm-3,13.77813,R,ugm-3
07-01-2016,21:00,1.57596,R,ugm-3,7.86946,R,ugm-3,10.28590,R,ugm-3
07-01-2016,22:00,1.57596,R,ugm-3,6.72674,R,ugm-3,9.14318,R,ugm-3
07-01-2016,23:00,1.53449,R,ugm-3,5.64713,R,ugm-3,7.99999,R,ugm-3
07-01-2016,24:00,0.95387,R,ugm-3,4.75973,R,ugm-3,6.22232,R,ugm-3
08-01-2016,01:00,1.05189,R,ugm-3,5.26001,R,ugm-3,6.87289,R,ugm-3
08-01-2016,02:00,1.10760,R,ugm-3,4.32608,R,ugm-3,6.02438,R,ugm-3
08-01-2016,03:00,0.99659,R,ugm-3,5.09060,R,ugm-3,6.61868,R,ugm-3
08-01-2016,04:00,0.66481,R,ugm-3,4.89935,R,ugm-3,5.91871,R,ugm-3
08-01-2016,05:00,1.37078,R,ugm-3,12.21705,R,ugm-3,14.31889,R,ugm-3
08-01-2016,06:00,1.66140,R,ugm-3,18.96292,R,ugm-3,21.51037,R,ugm-3
08-01-2016,07:00,3.53048,R,ugm-3,35.57011,R,ugm-3,40.98344,R,ugm-3
08-01-2016,08:00,47.18380,R,ugm-3,75.29369,R,ugm-3,147.64118,R,ugm-3
08-01-2016,09:00,33.60195,R,ugm-3,68.43594,R,ugm-3,119.95822,R,ugm-3
08-01-2016,10:00,7.31011,R,ugm-3,46.44841,R,ugm-3,57.65709,R,ugm-3
08-01-2016,11:00,20.43514,R,ugm-3,42.61433,R,ugm-3,73.94777,R,ugm-3
08-01-2016,12:00,20.60134,R,ugm-3,48.40538,R,ugm-3,79.99366,R,ugm-3
08-01-2016,13:00,24.21508,R,ugm-3,61.38360,R,ugm-3,98.51288,R,ugm-3
08-01-2016,14:00,21.51530,R,ugm-3,51.14025,R,ugm-3,84.12992,R,ugm-3
08-01-2016,15:00,9.96842,R,ugm-3,42.37192,R,ugm-3,57.65662,R,ugm-3
08-01-2016,16:00,9.92664,R,ugm-3,47.27222,R,ugm-3,62.49285,R,ugm-3
08-01-2016,17:00,2.69978,R,ugm-3,36.27056,R,ugm-3,40.41017,R,ugm-3
08-01-2016,18:00,1.82761,R,ugm-3,23.92633,R,ugm-3,26.72862,R,ugm-3
08-01-2016,19:00,1.57846,R,ugm-3,21.25313,R,ugm-3,23.67340,R,ugm-3
08-01-2016,20:00,1.57846,R,ugm-3,23.22636,R,ugm-3,25.64663,R,ugm-3
08-01-2016,21:00,1.12101,R,ugm-3,16.86347,R,ugm-3,18.58233,R,ugm-3
08-01-2016,22:00,1.70319,R,ugm-3,26.47139,R,ugm-3,29.08291,R,ugm-3
08-01-2016,23:00,8.01609,R,ugm-3,49.43765,R,ugm-3,61.72881,R,ugm-3
08-01-2016,24:00,5.27483,R,ugm-3,46.32314,R,ugm-3,54.41110,R,ugm-3
09-01-2016,01:00,6.38327,R,ugm-3,50.67743,R,ugm-3,60.46496,R,ugm-3
09-01-2016,02:00,8.43632,R,ugm-3,48.55009,R,ugm-3,61.48560,R,ugm-3
09-01-2016,03:00,5.91096,R,ugm-3,42.40873,R,ugm-3,51.47207,R,ugm-3
09-01-2016,04:00,3.70479,R,ugm-3,37.94639,R,ugm-3,43.62699,R,ugm-3
09-01-2016,05:00,1.37359,R,ugm-3,26.97820,R,ugm-3,29.08434,R,ugm-3
09-01-2016,06:00,3.28882,R,ugm-3,35.26793,R,ugm-3,40.31072,R,ugm-3
09-01-2016,07:00,14.81980,R,ugm-3,44.18401,R,ugm-3,66.90738,R,ugm-3
09-01-2016,08:00,16.27664,R,ugm-3,48.32840,R,ugm-3,73.28557,R,ugm-3
09-01-2016,09:00,32.63716,R,ugm-3,50.22225,R,ugm-3,100.26520,R,ugm-3
09-01-2016,10:00,28.18243,R,ugm-3,48.25046,R,ugm-3,91.46292,R,ugm-3
09-01-2016,11:00,19.60693,R,ugm-3,46.85721,R,ugm-3,76.92075,R,ugm-3
09-01-2016,12:00,10.74019,R,ugm-3,37.61840,R,ugm-3,54.08646,R,ugm-3
09-01-2016,13:00,7.74262,R,ugm-3,37.17613,R,ugm-3,49.04798,R,ugm-3
09-01-2016,14:00,2.58098,R,ugm-3,23.27704,R,ugm-3,27.23448,R,ugm-3
09-01-2016,15:00,5.12048,R,ugm-3,33.09677,R,ugm-3,40.94806,R,ugm-3
09-01-2016,16:00,4.12108,R,ugm-3,35.77714,R,ugm-3,42.09604,R,ugm-3
09-01-2016,17:00,1.04087,R,ugm-3,22.89645,R,ugm-3,24.49243,R,ugm-3
09-01-2016,18:00,0.95762,R,ugm-3,26.14913,R,ugm-3,27.61746,R,ugm-3
09-01-2016,19:00,1.12413,R,ugm-3,22.51347,R,ugm-3,24.23711,R,ugm-3
09-01-2016,20:00,1.99818,R,ugm-3,20.72672,R,ugm-3,23.79054,R,ugm-3
09-01-2016,21:00,2.58066,R,ugm-3,18.55794,R,ugm-3,22.51491,R,ugm-3
09-01-2016,22:00,1.24948,R,ugm-3,10.90460,R,ugm-3,12.82044,R,ugm-3
09-01-2016,23:00,14.52824,R,ugm-3,40.35710,R,ugm-3,62.63342,R,ugm-3
09-01-2016,24:00,1.45716,R,ugm-3,17.34685,R,ugm-3,19.58113,R,ugm-3
10-01-2016,01:00,0.66731,R,ugm-3,11.33603,R,ugm-3,12.35921,R,ugm-3
10-01-2016,02:00,1.83603,R,ugm-3,19.43036,R,ugm-3,22.24556,R,ugm-3
10-01-2016,03:00,2.71163,R,ugm-3,29.21105,R,ugm-3,33.36882,R,ugm-3
10-01-2016,04:00,1.91928,R,ugm-3,19.68632,R,ugm-3,22.62918,R,ugm-3
10-01-2016,05:00,2.67047,R,ugm-3,26.84481,R,ugm-3,30.93947,R,ugm-3
10-01-2016,06:00,1.58563,R,ugm-3,13.86993,R,ugm-3,16.30119,R,ugm-3
10-01-2016,07:00,1.37671,R,ugm-3,7.86181,R,ugm-3,9.97273,R,ugm-3
10-01-2016,08:00,0.70909,R,ugm-3,4.72961,R,ugm-3,5.81687,R,ugm-3
10-01-2016,09:00,0.70909,R,ugm-3,6.45612,R,ugm-3,7.54338,R,ugm-3
10-01-2016,10:00,0.95949,R,ugm-3,7.47835,R,ugm-3,8.94954,R,ugm-3
10-01-2016,11:00,1.29345,R,ugm-3,6.39110,R,ugm-3,8.37436,R,ugm-3
10-01-2016,12:00,1.20988,R,ugm-3,6.90269,R,ugm-3,8.75782,R,ugm-3
10-01-2016,13:00,1.12694,R,ugm-3,6.90173,R,ugm-3,8.62968,R,ugm-3
10-01-2016,14:00,1.20988,R,ugm-3,7.47835,R,ugm-3,9.33348,R,ugm-3
10-01-2016,15:00,1.12662,R,ugm-3,6.83862,R,ugm-3,8.56609,R,ugm-3
10-01-2016,16:00,1.12662,R,ugm-3,7.60553,R,ugm-3,9.33300,R,ugm-3
10-01-2016,17:00,1.21019,R,ugm-3,14.44559,R,ugm-3,16.30119,R,ugm-3
10-01-2016,18:00,1.25167,R,ugm-3,14.06261,R,ugm-3,15.98181,R,ugm-3
10-01-2016,19:00,0.91801,R,ugm-3,14.63732,R,ugm-3,16.04492,R,ugm-3
10-01-2016,20:00,0.83444,R,ugm-3,14.31841,R,ugm-3,15.59787,R,ugm-3
10-01-2016,21:00,1.16841,R,ugm-3,13.42288,R,ugm-3,15.21442,R,ugm-3
10-01-2016,22:00,0.87623,R,ugm-3,14.51014,R,ugm-3,15.85367,R,ugm-3
10-01-2016,23:00,0.87623,R,ugm-3,13.55102,R,ugm-3,14.89455,R,ugm-3
10-01-2016,24:00,0.87623,R,ugm-3,11.95313,R,ugm-3,13.29666,R,ugm-3
11-01-2016,01:00,0.83611,R,ugm-3,12.05385,R,ugm-3,13.33586,R,ugm-3
11-01-2016,02:00,0.55713,R,ugm-3,9.74610,R,ugm-3,10.60035,R,ugm-3
11-01-2016,03:00,0.92020,R,ugm-3,10.70713,R,ugm-3,12.11808,R,ugm-3
11-01-2016,04:00,1.00345,R,ugm-3,12.43890,R,ugm-3,13.97751,R,ugm-3
11-01-2016,05:00,1.71473,R,ugm-3,19.74704,R,ugm-3,22.37625,R,ugm-3
11-01-2016,06:00,1.50549,R,ugm-3,18.52926,R,ugm-3,20.83764,R,ugm-3
11-01-2016,07:00,4.93432,R,ugm-3,35.20004,R,ugm-3,42.76589,R,ugm-3
11-01-2016,08:00,35.33445,R,ugm-3,69.11727,R,ugm-3,123.29601,R,ugm-3
11-01-2016,09:00,99.56323,R,ugm-3,83.15933,R,ugm-3,235.82081,R,ugm-3
11-01-2016,10:00,53.06388,R,ugm-3,65.27076,R,ugm-3,146.63424,R,ugm-3
11-01-2016,11:00,29.39637,R,ugm-3,53.02502,R,ugm-3,98.09882,R,ugm-3
11-01-2016,12:00,13.00435,R,ugm-3,35.26459,R,ugm-3,55.20431,R,ugm-3
11-01-2016,13:00,12.41937,R,ugm-3,32.69945,R,ugm-3,51.74221,R,ugm-3
11-01-2016,14:00,12.25192,R,ugm-3,33.91819,R,ugm-3,52.70420,R,ugm-3
11-01-2016,15:00,14.71939,R,ugm-3,38.27725,R,ugm-3,60.84667,R,ugm-3
11-01-2016,16:00,16.60063,R,ugm-3,45.26601,R,ugm-3,70.71995,R,ugm-3
11-01-2016,17:00,21.82806,R,ugm-3,56.87106,R,ugm-3,90.34028,R,ugm-3
11-01-2016,18:00,23.24967,R,ugm-3,57.70491,R,ugm-3,93.35391,R,ugm-3
11-01-2016,19:00,19.31912,R,ugm-3,58.02477,R,ugm-3,87.64701,R,ugm-3
11-01-2016,20:00,8.48850,R,ugm-3,49.36975,R,ugm-3,62.38527,R,ugm-3
11-01-2016,21:00,19.19345,R,ugm-3,55.20431,R,ugm-3,84.63386,R,ugm-3
11-01-2016,22:00,27.51481,R,ugm-3,55.84548,R,ugm-3,98.03427,R,ugm-3
11-01-2016,23:00,4.76718,R,ugm-3,43.47065,R,ugm-3,50.78022,R,ugm-3
11-01-2016,24:00,2.59283,R,ugm-3,34.87874,R,ugm-3,38.85435,R,ugm-3
12-01-2016,01:00,1.28389,R,ugm-3,22.62169,R,ugm-3,24.59029,R,ugm-3
12-01-2016,02:00,2.28921,R,ugm-3,23.47913,R,ugm-3,26.98920,R,ugm-3
12-01-2016,03:00,1.80110,R,ugm-3,20.56511,R,ugm-3,23.32676,R,ugm-3
12-01-2016,04:00,1.80079,R,ugm-3,19.02268,R,ugm-3,21.78385,R,ugm-3
12-01-2016,05:00,1.80079,R,ugm-3,21.97941,R,ugm-3,24.74058,R,ugm-3
12-01-2016,06:00,7.49627,R,ugm-3,31.17471,R,ugm-3,42.66883,R,ugm-3
12-01-2016,07:00,66.79572,R,ugm-3,63.50074,R,ugm-3,165.91942,R,ugm-3
12-01-2016,08:00,30.82234,R,ugm-3,50.60810,R,ugm-3,97.86836,R,ugm-3
12-01-2016,09:00,21.90228,R,ugm-3,52.01139,R,ugm-3,85.59442,R,ugm-3
12-01-2016,10:00,37.35508,R,ugm-3,65.20238,R,ugm-3,122.47937,R,ugm-3
12-01-2016,11:00,22.53029,R,ugm-3,45.90765,R,ugm-3,80.45362,R,ugm-3
12-01-2016,12:00,5.36058,R,ugm-3,24.10324,R,ugm-3,32.32268,R,ugm-3
12-01-2016,13:00,4.89939,R,ugm-3,22.43267,R,ugm-3,29.94497,R,ugm-3
12-01-2016,14:00,6.11427,R,ugm-3,25.90338,R,ugm-3,35.27845,R,ugm-3
12-01-2016,15:00,7.87296,R,ugm-3,30.46804,R,ugm-3,42.53974,R,ugm-3
12-01-2016,16:00,10.51131,R,ugm-3,43.90192,R,ugm-3,60.01903,R,ugm-3
12-01-2016,17:00,7.62194,R,ugm-3,41.71354,R,ugm-3,53.40035,R,ugm-3
12-01-2016,18:00,4.14571,R,ugm-3,31.42811,R,ugm-3,37.78478,R,ugm-3
12-01-2016,19:00,3.14101,R,ugm-3,22.55889,R,ugm-3,27.37505,R,ugm-3
12-01-2016,20:00,1.80048,R,ugm-3,16.26008,R,ugm-3,19.02077,R,ugm-3
12-01-2016,21:00,1.59124,R,ugm-3,17.80203,R,ugm-3,20.24190,R,ugm-3
12-01-2016,22:00,1.84289,R,ugm-3,17.80107,R,ugm-3,20.62679,R,ugm-3
12-01-2016,23:00,1.54946,R,ugm-3,14.26725,R,ugm-3,16.64305,R,ugm-3
12-01-2016,24:00,2.13569,R,ugm-3,16.13146,R,ugm-3,19.40614,R,ugm-3
13-01-2016,01:00,1.62315,R,ugm-3,10.64944,R,ugm-3,13.13824,R,ugm-3
13-01-2016,02:00,0.78330,R,ugm-3,9.44711,R,ugm-3,10.64816,R,ugm-3
13-01-2016,03:00,1.34334,R,ugm-3,9.21108,R,ugm-3,11.27084,R,ugm-3
13-01-2016,04:00,0.92363,R,ugm-3,6.11904,R,ugm-3,7.53525,R,ugm-3
13-01-2016,05:00,1.17527,R,ugm-3,5.73320,R,ugm-3,7.53525,R,ugm-3
13-01-2016,06:00,2.22425,R,ugm-3,11.66051,R,ugm-3,15.07098,R,ugm-3
13-01-2016,07:00,8.39433,R,ugm-3,24.93374,R,ugm-3,37.80487,R,ugm-3
13-01-2016,08:00,10.49291,R,ugm-3,37.17326,R,ugm-3,53.26217,R,ugm-3
13-01-2016,09:00,18.63529,R,ugm-3,55.73025,R,ugm-3,84.30396,R,ugm-3
13-01-2016,10:00,16.11730,R,ugm-3,49.15794,R,ugm-3,73.87079,R,ugm-3
13-01-2016,11:00,12.75926,R,ugm-3,42.26338,R,ugm-3,61.82730,R,ugm-3
13-01-2016,12:00,8.43611,R,ugm-3,35.81826,R,ugm-3,48.75345,R,ugm-3
13-01-2016,13:00,6.12799,R,ugm-3,34.46277,R,ugm-3,43.85888,R,ugm-3
13-01-2016,14:00,4.40702,R,ugm-3,25.37983,R,ugm-3,32.13717,R,ugm-3
13-01-2016,15:00,7.13518,R,ugm-3,33.30475,R,ugm-3,44.24521,R,ugm-3
13-01-2016,16:00,10.87022,R,ugm-3,47.41374,R,ugm-3,64.08118,R,ugm-3
13-01-2016,17:00,11.33234,R,ugm-3,55.59303,R,ugm-3,72.96905,R,ugm-3
13-01-2016,18:00,10.78665,R,ugm-3,64.09361,R,ugm-3,80.63291,R,ugm-3
13-01-2016,19:00,2.76994,R,ugm-3,43.28274,R,ugm-3,47.52993,R,ugm-3
13-01-2016,20:00,1.46870,R,ugm-3,29.37026,R,ugm-3,31.62223,R,ugm-3
13-01-2016,21:00,1.25915,R,ugm-3,27.75898,R,ugm-3,29.68965,R,ugm-3
13-01-2016,22:00,1.04960,R,ugm-3,33.55481,R,ugm-3,35.16418,R,ugm-3
13-01-2016,23:00,2.26666,R,ugm-3,34.90886,R,ugm-3,38.38435,R,ugm-3
13-01-2016,24:00,4.02909,R,ugm-3,34.20363,R,ugm-3,40.38148,R,ugm-3
14-01-2016,01:00,1.28971,R,ugm-3,25.64854,R,ugm-3,27.62606,R,ugm-3
14-01-2016,02:00,1.17745,R,ugm-3,22.72241,R,ugm-3,24.52781,R,ugm-3
14-01-2016,03:00,1.47213,R,ugm-3,25.88521,R,ugm-3,28.14244,R,ugm-3
14-01-2016,04:00,3.65958,R,ugm-3,25.43577,R,ugm-3,31.04705,R,ugm-3
14-01-2016,05:00,4.75346,R,ugm-3,27.11495,R,ugm-3,34.40348,R,ugm-3
14-01-2016,06:00,4.12233,R,ugm-3,28.66359,R,ugm-3,34.98441,R,ugm-3
14-01-2016,07:00,22.46263,R,ugm-3,40.69035,R,ugm-3,75.13256,R,ugm-3
14-01-2016,08:00,14.38636,R,ugm-3,31.57968,R,ugm-3,53.63845,R,ugm-3
14-01-2016,09:00,5.08992,R,ugm-3,19.36980,R,ugm-3,27.17423,R,ugm-3
14-01-2016,10:00,3.78587,R,ugm-3,17.81924,R,ugm-3,23.62416,R,ugm-3
14-01-2016,11:00,9.50630,R,ugm-3,20.47283,R,ugm-3,35.04895,R,ugm-3
14-01-2016,12:00,7.19318,R,ugm-3,19.24310,R,ugm-3,30.27248,R,ugm-3
14-01-2016,13:00,4.58539,R,ugm-3,16.72242,R,ugm-3,23.75325,R,ugm-3
14-01-2016,14:00,4.20652,R,ugm-3,15.17330,R,ugm-3,21.62320,R,ugm-3
14-01-2016,15:00,3.86975,R,ugm-3,15.62513,R,ugm-3,21.55866,R,ugm-3
14-01-2016,16:00,3.65958,R,ugm-3,18.07743,R,ugm-3,23.68870,R,ugm-3
14-01-2016,17:00,3.87006,R,ugm-3,20.91749,R,ugm-3,26.85150,R,ugm-3
14-01-2016,18:00,3.49182,R,ugm-3,19.62560,R,ugm-3,24.97964,R,ugm-3
14-01-2016,19:00,2.90278,R,ugm-3,18.78601,R,ugm-3,23.23688,R,ugm-3
14-01-2016,20:00,2.14536,R,ugm-3,16.84913,R,ugm-3,20.13863,R,ugm-3
14-01-2016,21:00,1.72439,R,ugm-3,11.36264,R,ugm-3,14.00667,R,ugm-3
14-01-2016,22:00,1.64051,R,ugm-3,7.23116,R,ugm-3,9.74658,R,ugm-3
14-01-2016,23:00,2.48182,R,ugm-3,10.26582,R,ugm-3,14.07122,R,ugm-3
14-01-2016,24:00,1.34584,R,ugm-3,6.45660,R,ugm-3,8.52019,R,ugm-3
15-01-2016,01:00,1.06769,R,ugm-3,5.09108,R,ugm-3,6.72818,R,ugm-3
15-01-2016,02:00,0.73092,R,ugm-3,4.14056,R,ugm-3,5.26129,R,ugm-3
15-01-2016,03:00,1.34896,R,ugm-3,5.24121,R,ugm-3,7.30958,R,ugm-3
15-01-2016,04:00,1.18057,R,ugm-3,6.59956,R,ugm-3,8.40974,R,ugm-3
15-01-2016,05:00,1.22298,R,ugm-3,4.91752,R,ugm-3,6.79272,R,ugm-3
15-01-2016,06:00,3.03531,R,ugm-3,12.35953,R,ugm-3,17.01360,R,ugm-3
15-01-2016,07:00,21.20597,R,ugm-3,41.87801,R,ugm-3,74.39338,R,ugm-3
15-01-2016,08:00,30.43880,R,ugm-3,59.35492,R,ugm-3,106.02709,R,ugm-3
15-01-2016,09:00,28.20395,R,ugm-3,61.29467,R,ugm-3,104.54012,R,ugm-3
15-01-2016,10:00,29.42661,R,ugm-3,57.54330,R,ugm-3,102.66348,R,ugm-3
15-01-2016,11:00,13.53289,R,ugm-3,41.02886,R,ugm-3,61.77901,R,ugm-3
15-01-2016,12:00,7.67277,R,ugm-3,21.29186,R,ugm-3,33.05661,R,ugm-3
15-01-2016,13:00,10.96096,R,ugm-3,23.04228,R,ugm-3,39.84885,R,ugm-3
15-01-2016,14:00,7.63067,R,ugm-3,22.97438,R,ugm-3,34.67458,R,ugm-3
15-01-2016,15:00,7.54648,R,ugm-3,24.84959,R,ugm-3,36.42069,R,ugm-3
15-01-2016,16:00,9.86521,R,ugm-3,33.71451,R,ugm-3,48.84095,R,ugm-3
15-01-2016,17:00,5.90222,R,ugm-3,31.12259,R,ugm-3,40.17254,R,ugm-3
15-01-2016,18:00,4.67925,R,ugm-3,28.59905,R,ugm-3,35.77379,R,ugm-3